Weather History for Culpeper, VA

Change the Weather History Date:

Tuesday, November 1, 2011

  Actual Average (KOMH) Record (KOMH)
Temperature  
Mean Temperature 48 °F -  
Max Temperature 60 °F 62 °F 86 °F (1950)
Min Temperature 35 °F 41 °F 28 °F (1955)
Degree Days  
Heating Degree Days 18    
Moisture  
Dew Point 38 °F    
Average Humidity 73    
Maximum Humidity 100    
Minimum Humidity 42    
Precipitation  
Precipitation 0.00 in - - ()
Sea Level Pressure  
Sea Level Pressure 30.29 in    
Wind  
Wind Speed 3 mph (North)    
Max Wind Speed 9 mph    
Max Gust Speed -    
Visibility 10 miles    
Events      
Averages and records for this station are not official NWS values.
T = Trace of Precipitation, MM = Missing Value Source: NWS Daily Summary

Daily Weather History Graph

Daily Weather History Graph

Search for Another Location

Airport:

Trip Planner

Search our weather history database for the weather conditions in past years. The results will help you decide how hot, cold, wet, or windy it might be!

Date:

Astronomy

Nov. 01, 2011 Rise Set
Actual Time 7:37 AM EDT 6:11 PM EDT
Civil Twilight 7:10 AM EDT 6:39 PM EDT
Nautical Twilight 6:38 AM EDT 7:10 PM EDT
Astronomical Twilight 6:07 AM EDT 7:41 PM EDT
Moon 1:22 PM EDT (11/1) 11:52 PM EDT (11/1)
Length of Visible Light 11h 29m
Length of Day
10h 34m
Waxing Crescent, 39% of the Moon is Illuminated
Nov 1
Waxing Crescent
Nov 2
First Quarter
Nov 10
Full
Nov 18
Last Quarter
Nov 25
New

Hourly Weather History & Observations

Time (EDT) Temp. Windchill Dew Point Humidity Pressure Visibility Wind Dir Wind Speed Gust Speed Precip Events Conditions
12:15 AM 44.6 °F - 39.2 °F 81% 30.25 in 10.0 mi Calm Calm - N/A   Overcast
12:35 AM 44.6 °F 43.1 °F 39.2 °F 81% 30.25 in 10.0 mi North 3.5 mph - N/A   Scattered Clouds
12:55 AM 42.8 °F - 39.2 °F 87% 30.25 in 10.0 mi Calm Calm - N/A   Scattered Clouds
1:15 AM 41.0 °F - 37.4 °F 87% 30.24 in 10.0 mi Calm Calm - N/A   Scattered Clouds
1:35 AM 41.0 °F 37.1 °F 37.4 °F 87% 30.25 in 10.0 mi NW 5.8 mph - N/A   Clear
1:55 AM 41.0 °F - 37.4 °F 87% 30.25 in 10.0 mi Calm Calm - N/A   Clear
2:15 AM 41.0 °F 39.0 °F 37.4 °F 87% 30.25 in 10.0 mi NNE 3.5 mph - N/A   Clear
2:35 AM 39.2 °F - 37.4 °F 93% 30.25 in 10.0 mi Calm Calm - N/A   Clear
2:55 AM 39.2 °F - 37.4 °F 93% 30.25 in 10.0 mi Calm Calm - N/A   Clear
3:15 AM 39.2 °F 37.0 °F 37.4 °F 93% 30.26 in 10.0 mi North 3.5 mph - N/A   Clear
3:35 AM 39.2 °F 35.9 °F 35.6 °F 87% 30.25 in 10.0 mi NNE 4.6 mph - N/A   Clear
3:55 AM 39.2 °F 37.0 °F 35.6 °F 87% 30.25 in 10.0 mi North 3.5 mph - N/A   Clear
4:15 AM 39.2 °F 37.0 °F 35.6 °F 87% 30.25 in 10.0 mi NNE 3.5 mph - N/A   Clear
4:35 AM 37.4 °F 34.9 °F 35.6 °F 93% 30.25 in 10.0 mi North 3.5 mph - N/A   Clear
4:55 AM 37.4 °F 34.9 °F 35.6 °F 93% 30.26 in 10.0 mi North 3.5 mph - N/A   Clear
5:15 AM 37.4 °F 34.9 °F 35.6 °F 93% 30.26 in 10.0 mi North 3.5 mph - N/A   Clear
5:35 AM 37.4 °F - 35.6 °F 93% 30.26 in 10.0 mi Calm Calm - N/A   Clear
5:55 AM 39.2 °F - 35.6 °F 87% 30.27 in 10.0 mi Calm Calm - N/A   Clear
6:15 AM 39.2 °F 37.0 °F 35.6 °F 87% 30.28 in 10.0 mi NNE 3.5 mph - N/A   Clear
6:35 AM 37.4 °F 34.9 °F 35.6 °F 93% 30.28 in 10.0 mi North 3.5 mph - N/A   Clear
6:55 AM 37.4 °F - 35.6 °F 93% 30.28 in 10.0 mi Calm Calm - N/A   Clear
7:15 AM 35.6 °F - 35.6 °F 100% 30.28 in 10.0 mi Calm Calm - N/A   Clear
7:35 AM 37.4 °F - 35.6 °F 93% 30.29 in 10.0 mi Calm Calm - N/A   Clear
7:55 AM 35.6 °F - 35.6 °F 100% 30.30 in 10.0 mi Calm Calm - N/A   Clear
8:15 AM 37.4 °F - 35.6 °F 93% 30.30 in 10.0 mi Calm Calm - N/A   Clear
8:35 AM 39.2 °F - 37.4 °F 93% 30.31 in 10.0 mi Calm Calm - N/A   Clear
9:15 AM 44.6 °F 42.2 °F 39.2 °F 81% 30.32 in 10.0 mi North 4.6 mph - N/A   Clear
9:35 AM 46.4 °F 44.3 °F 39.2 °F 76% 30.33 in 10.0 mi North 4.6 mph - N/A   Clear
9:55 AM 48.2 °F - 41.0 °F 76% 30.33 in 10.0 mi North 4.6 mph - N/A   Unknown
10:15 AM - - - N/A% 30.33 in - North - - N/A   Unknown
10:35 AM 51.8 °F - 42.8 °F 71% 30.34 in - North 5.8 mph - N/A   Unknown
10:55 AM 53.6 °F - 42.8 °F 67% 30.34 in 10.0 mi North 9.2 mph - N/A   Clear
11:15 AM 55.4 °F - 42.8 °F 63% 30.34 in 10.0 mi NNW 8.1 mph - N/A   Clear
11:35 AM 55.4 °F - 42.8 °F 63% 30.35 in 10.0 mi North 6.9 mph - N/A   Clear
11:55 AM 57.2 °F - 42.8 °F 59% 30.35 in 10.0 mi North 6.9 mph - N/A   Clear
12:15 PM 57.2 °F - 41.0 °F 55% 30.34 in 10.0 mi NNW 6.9 mph - N/A   Clear
12:35 PM 57.2 °F - 39.2 °F 51% 30.33 in 10.0 mi North 5.8 mph - N/A   Clear
12:55 PM 59.0 °F - 39.2 °F 48% 30.33 in 10.0 mi North 6.9 mph - N/A   Clear
1:15 PM 59.0 °F - 39.2 °F 48% 30.32 in 10.0 mi North 8.1 mph - N/A   Clear
1:35 PM 60.8 °F - 37.4 °F 42% 30.31 in 10.0 mi NNE 8.1 mph - N/A   Clear
1:55 PM 60.8 °F - 39.2 °F 45% 30.31 in 10.0 mi NE 3.5 mph - N/A   Clear
2:15 PM 60.8 °F - 39.2 °F 45% 30.30 in 10.0 mi ENE 8.1 mph - N/A   Clear
2:35 PM 60.8 °F - 39.2 °F 45% 30.31 in 10.0 mi NNE 8.1 mph - N/A   Clear
2:55 PM 60.8 °F - 39.2 °F 45% 30.30 in 10.0 mi NNE 5.8 mph - N/A   Clear
3:15 PM 60.8 °F - 39.2 °F 45% 30.30 in 7.0 mi NNE 6.9 mph - N/A   Clear
3:35 PM 60.8 °F - 39.2 °F 45% 30.31 in 10.0 mi NNE 5.8 mph - N/A   Scattered Clouds
3:55 PM 60.8 °F - 39.2 °F 45% 30.31 in 10.0 mi ENE 5.8 mph - N/A   Clear
4:15 PM 60.8 °F - 39.2 °F 45% 30.31 in 10.0 mi NNE 5.8 mph - N/A   Clear
4:35 PM 60.8 °F - 39.2 °F 45% 30.31 in 10.0 mi NE 4.6 mph - N/A   Clear
4:55 PM 60.8 °F - 39.2 °F 45% 30.32 in 10.0 mi NE 4.6 mph - N/A   Clear
5:15 PM 59.0 °F - 39.2 °F 48% 30.32 in 10.0 mi North 4.6 mph - N/A   Clear
5:35 PM 57.2 °F - 41.0 °F 55% 30.32 in 10.0 mi North 3.5 mph - N/A   Clear
5:55 PM 57.2 °F - 41.0 °F 55% 30.32 in 10.0 mi Calm Calm - N/A   Clear
6:15 PM 53.6 °F - 41.0 °F 62% 30.32 in 10.0 mi Calm Calm - N/A   Clear
6:35 PM 51.8 °F - 41.0 °F 67% 30.33 in 10.0 mi Calm Calm - N/A   Clear
6:55 PM 46.4 °F - 42.8 °F 87% 30.33 in 10.0 mi Calm Calm - N/A   Clear
7:15 PM 44.6 °F - 41.0 °F 87% 30.34 in 10.0 mi Calm Calm - N/A   Clear
7:35 PM 42.8 °F - 39.2 °F 87% 30.35 in 10.0 mi Calm Calm - N/A   Clear
7:55 PM 44.6 °F - 39.2 °F 81% 30.35 in 10.0 mi Calm Calm - N/A   Clear
8:15 PM 42.8 °F - 39.2 °F 87% 30.36 in 10.0 mi Calm Calm - N/A   Clear
8:35 PM 41.0 °F - 39.2 °F 93% 30.36 in 10.0 mi Calm Calm - N/A   Clear
8:55 PM 41.0 °F 39.0 °F 37.4 °F 87% 30.36 in 10.0 mi North 3.5 mph - N/A   Clear
9:15 PM 39.2 °F - 37.4 °F 93% 30.36 in 10.0 mi Calm Calm - N/A   Clear
9:35 PM 39.2 °F 37.0 °F 37.4 °F 93% 30.37 in 10.0 mi NNE 3.5 mph - N/A   Clear
9:55 PM 39.2 °F - 37.4 °F 93% 30.37 in 10.0 mi Calm Calm - N/A   Clear
10:15 PM 39.2 °F - 37.4 °F 93% 30.37 in 10.0 mi Calm Calm - N/A   Clear
10:35 PM 39.2 °F - 37.4 °F 93% 30.37 in 10.0 mi Calm Calm - N/A   Clear
10:55 PM 39.2 °F - 37.4 °F 93% 30.38 in 10.0 mi Calm Calm - N/A   Clear
11:15 PM 37.4 °F - 37.4 °F 100% 30.38 in 10.0 mi Calm Calm - N/A   Clear
11:35 PM 37.4 °F - 37.4 °F 100% 30.37 in 10.0 mi Calm Calm - N/A   Clear
11:55 PM 37.4 °F - 37.4 °F 100% 30.37 in 10.0 mi Calm Calm - N/A   Clear